Temp
18 17 16 16 16 17 18 17 17 17 18 19 17 17 18 18 17 17 16 15 14 13 13 14 15 15 16 16 17 17 17 18 18 18 16 15 15 18 18 18 16 16 15 14
17 16 18 17 16 17 17 17 16 16 18 17 17 18 18 18 19 19 18 17 15 13 12 12 14 14 15 15 15 16 16 17 17 17 17 17 17 17 18 18 18 17 14 14
16 18 19 18 17 17 16 16 16 17 17 17 17 16 18 18 17 17 16 16 14 13 12 11 12 14 14 14 15 15 16 16 16 17 17 17 16 17 17 17 18 14 15 16
16 18 19 17 18 17 16 17 17 17 17 16 18 17 18 18 16 16 15 13 12 11 11 11 12 13 14 14 14 15 16 16 16 16 16 16 16 16 16 18 18 16 16 16
17 17 18 19 19 17 17 18 17 18 16 16 17 16 17 16 17 17 15 13 11 11 11 11 11 13 13 14 14 15 15 16 16 16 15 15 15 15 16 17 17 17 15 13
18 19 19 19 20 19 19 18 16 14 15 15 17 17 17 18 19 17 14 12 11 11 11 11 12 13 13 13 14 14 14 15 15 15 15 15 15 15 14 14 14 13 14 14
19 18 20 20 19 18 19 18 14 16 14 15 16 15 17 18 17 17 17 12 11 11 11 12 11 11 13 13 13 13 14 13 14 14 14 14 14 14 15 15 14 13 13 13
16 16 19 19 20 19 17 18 15 16 13 14 15 14 18 18 17 15 15 12 11 11 11 11 11 12 12 13 13 13 13 13 13 13 13 13 13 13 14 13 14 13 13 13
16 16 19 20 20 20 17 16 18 14 13 13 14 16 19 17 15 14 13 12 11 11 11 11 11 12 12 13 13 13 13 13 13 13 13 12 12 12 12 12 13 13 12 12
15 15 18 20 19 19 18 18 17 14 16 16 15 16 19 20 18 14 12 12 11 11 11 11 10 11 12 12 12 13 12 12 12 12 12 12 12 12 12 12 12 12 11 12
12 13 17 18 18 17 17 17 16 17 15 16 16 17 18 20 18 16 13 12 11 11 11 11 10 11 12 12 12 12 12 11 11 12 12 12 12 12 12 11 11 11 10 11
12 10 11 16 18 19 19 18 18 17 15 13 14 16 19 17 15 15 13 12 11 11 11 10 10 11 12 13 11 11 11 11 11 11 11 11 11 11 11 10 10 10 10 10
13 11 11 14 16 15 14 13 13 13 14 15 14 17 17 16 15 14 13 12 11 11 10 10 10 11 11 11 11 11 11 11 11 10 10 10 10 10 10 10 10 10 10 10
12 11 11 11 11 10 11 11 12 12 12 14 15 17 18 19 17 14 12 11 11 11 11 11 11 10 11 11 11 11 11 11 10 10 10 10 10 10 10 10 10 10 10 10
10 9 10 11 12 9 9 10 10 11 11 11 12 13 18 18 18 15 13 11 11 11 11 12 11 11 11 11 11 10 10 10 10 10 9 9 9 9 9 9 9 9 10 10
8 9 10 9 12 12 11 10 11 11 11 11 12 13 17 18 15 15 13 11 12 12 11 12 12 11 11 11 10 10 10 10 10 9 9 9 9 9 9 9 9 9 9 9
5 7 6 6 8 9 9 12 11 12 13 12 13 15 16 17 17 17 14 12 13 13 12 11 11 11 11 11 11 10 10 10 9 9 9 9 9 9 9 9 9 9 8 8
5 6 7 4 8 5 10 10 13 14 13 13 14 14 15 16 18 17 15 14 14 13 12 11 11 11 11 11 11 10 10 10 9 9 9 9 9 9 8 9 8 8 8 8
5 6 6 4 5 7 10 12 13 12 13 13 14 15 16 16 16 17 17 15 16 14 13 12 12 11 11 11 11 10 9 9 9 9 9 8 9 8 8 9 8 8 8 8
6 8 7 2 3 7 9 11 11 12 11 11 12 13 13 13 15 15 15 15 15 13 13 12 11 11 10 10 11 10 9 9 9 9 9 9 9 9 8 9 8 7 7 7
7 5 5 3 3 5 8 9 11 10 10 11 12 12 11 12 13 14 14 15 14 12 12 12 11 10 10 10 10 10 9 9 9 9 9 9 9 9 10 8 7 7 7 7
7 6 6 7 6 6 9 10 9 9 10 11 11 11 11 11 12 12 13 13 13 11 11 12 11 10 10 10 10 10 9 10 9 9 9 9 9 9 8 8 7 7 7 6
6 5 4 5 6 8 8 10 9 9 9 10 10 11 11 11 12 12 12 13 12 11 11 11 11 10 9 10 10 9 10 9 9 9 9 9 9 9 8 7 6 6 6 6
6 5 6 6 7 7 8 8 8 9 9 10 10 10 11 11 11 12 12 12 12 11 11 11 11 10 9 10 10 10 9 9 9 8 8 8 9 7 7 7 6 6 6 5
6 5 5 6 6 7 8 8 8 9 8 9 10 10 11 11 11 12 12 12 12 12 11 11 10 10 10 10 10 10 9 10 9 8 8 8 7 7 6 7 7 7 7 7
4 5 5 6 6 8 8 8 8 8 9 9 9 10 11 11 11 12 12 12 12 11 11 11 10 10 9 10 9 9 10 10 9 7 7 7 7 6 6 6 5 6 7 7
Height
775 787 786 781 782 781 783 791 790 783 773 776 774 767 758 749 751 750 748 749 751 750 750 752 755 758 760 760 761 763 764 765 765 766 768 771 772 776 778 780 784 784 787 790
782 783 771 775 778 782 785 788 790 781 772 776 771 759 751 743 737 734 734 736 741 747 749 751 754 756 758 760 761 762 763 762 762 764 767 769 771 773 775 778 780 780 783 787
777 770 762 768 777 783 785 788 786 785 775 771 772 761 749 736 733 731 730 730 734 738 744 750 752 756 758 759 760 761 760 760 761 763 765 767 769 771 773 775 776 778 780 781
771 760 764 770 771 775 786 773 774 776 781 794 770 778 751 739 741 732 731 734 735 737 743 748 752 755 757 759 760 759 758 758 760 762 763 766 767 769 771 773 774 775 779 782
763 760 762 762 760 770 775 765 771 771 781 782 778 786 752 745 738 730 730 734 737 740 741 747 751 754 757 758 759 758 757 757 759 759 762 764 766 768 770 770 771 772 776 781
754 747 751 751 749 756 760 765 775 782 784 793 774 778 757 744 731 730 732 735 739 741 744 748 751 755 758 758 758 758 757 758 758 760 761 763 765 766 768 769 771 773 775 777
751 752 746 743 753 756 759 769 795 790 800 788 772 783 751 731 728 727 725 735 739 742 745 749 753 756 758 759 759 759 758 758 759 760 761 762 765 764 765 766 768 772 775 776
755 762 744 736 739 751 759 761 784 790 802 790 775 780 742 721 722 724 723 730 738 743 746 749 753 755 758 759 760 760 757 758 760 761 763 763 764 765 766 766 766 767 769 773
752 747 729 728 728 739 755 762 753 779 787 791 773 755 728 723 726 727 728 728 735 742 746 750 753 755 758 758 761 759 758 760 762 762 763 766 767 767 767 767 766 766 767 769
747 748 725 724 730 736 741 743 760 774 776 776 767 761 744 722 723 727 731 731 735 740 746 750 753 755 758 758 762 760 760 762 763 764 765 766 768 768 768 768 766 765 766 767
765 754 735 727 729 738 743 748 749 747 762 766 767 756 726 720 719 723 728 730 732 736 744 750 753 755 756 759 762 761 761 762 763 764 765 766 767 768 768 767 766 765 764 764
763 770 760 735 724 719 725 734 737 751 761 767 761 749 718 722 721 720 727 731 734 735 741 748 752 754 755 759 762 763 762 763 764 765 765 766 767 768 767 767 767 765 764 764
761 768 757 739 732 734 744 752 755 753 750 749 760 746 720 721 723 723 729 733 737 738 741 746 751 753 754 757 761 763 762 763 765 766 766 767 768 769 769 769 769 769 767 766
765 762 764 760 761 772 763 764 764 761 763 748 743 734 722 718 722 724 727 731 735 739 740 742 747 752 753 755 759 762 763 764 765 767 768 768 770 770 770 771 771 771 770 769
771 770 764 756 756 774 779 774 768 771 768 769 751 752 726 718 715 719 720 728 731 733 736 739 743 748 751 753 757 762 762 764 766 768 769 770 771 772 773 773 774 774 774 774
771 769 764 767 754 753 759 764 760 758 760 762 755 747 726 718 718 717 719 724 725 727 729 732 737 742 746 749 754 760 761 764 767 769 771 772 773 774 775 776 776 777 778 778
787 772 780 789 771 765 765 744 750 741 742 746 747 731 723 719 715 713 715 717 715 715 719 724 729 734 739 744 750 757 760 763 767 770 772 774 775 776 778 780 780 781 782 783
779 775 772 793 772 794 743 738 730 725 728 731 728 722 719 716 708 705 704 707 706 707 710 715 721 728 734 740 746 752 759 762 766 770 773 776 778 779 781 784 784 786 788 789
768 771 775 790 785 765 742 729 725 725 725 721 720 713 712 710 706 702 701 702 697 697 698 703 711 720 728 735 742 749 757 760 765 769 773 776 779 781 784 786 788 791 793 794
758 756 759 795 796 767 742 728 729 726 736 728 722 722 723 719 714 709 702 700 694 691 696 703 710 715 723 731 738 745 753 758 763 768 772 776 779 783 786 789 792 794 797 799
749 761 767 782 791 768 742 729 727 738 736 727 723 725 724 727 720 711 703 698 693 688 693 699 706 713 717 726 734 742 750 756 761 767 771 776 780 784 788 791 795 797 800 802
743 754 754 755 761 765 728 730 736 729 723 722 721 721 721 722 714 709 702 698 695 690 693 697 702 709 715 723 731 738 746 752 759 765 770 776 780 785 789 792 797 800 803 805
743 742 753 752 747 727 722 719 719 724 723 720 720 718 718 716 710 705 700 696 692 690 691 696 702 707 713 719 727 734 742 749 756 764 769 775 780 785 789 793 797 802 806 808
730 732 734 737 727 724 721 718 716 717 718 716 715 716 713 711 705 700 699 696 691 688 689 695 701 705 708 715 724 731 739 746 753 761 768 774 780 785 789 794 799 803 807 811
725 728 731 731 722 721 717 717 714 713 709 708 711 712 709 703 701 700 695 693 689 685 687 691 697 702 705 711 721 728 736 742 751 758 766 772 779 784 789 795 799 803 808 811
720 721 725 722 715 713 711 709 707 711 705 702 701 700 700 700 695 692 691 688 683 681 681 688 694 699 703 709 717 725 733 739 747 755 764 770 777 783 788 793 799 805 809 812
Wind_Speed
2 2 11 9 7 5 4 3 5 4 7 4 8 10 13 12 5 9 10 9 9 10 4 14 12 10 7 6 6 7 10 10 12 14 13 15 17 17 17 17 20 24 29 33
1 12 7 6 6 6 5 3 8 7 8 4 8 18 13 10 11 13 15 13 12 6 7 8 11 8 6 4 3 3 6 8 10 12 12 12 14 18 21 17 16 22 26 27
10 5 8 12 5 7 5 6 4 8 5 5 6 9 5 5 5 6 6 6 6 13 12 7 8 8 5 3 1 3 3 5 6 8 9 8 8 11 11 14 16 18 19 20
8 10 3 4 7 8 6 8 10 8 2 4 3 7 5 7 9 6 6 4 5 8 7 6 7 8 7 4 1 2 2 3 4 9 10 10 10 9 9 13 13 16 20 22
7 6 14 16 9 7 8 6 7 4 4 1 3 3 6 3 7 8 6 3 4 6 9 8 7 10 7 5 3 4 3 2 3 5 7 8 8 6 6 7 12 13 22 20
5 3 6 7 10 13 1 3 4 4 3 2 7 7 5 4 4 5 3 3 5 7 7 7 10 10 7 5 5 4 5 4 3 4 4 4 8 8 6 5 8 9 11 15
5 9 4 4 6 2 5 4 1 1 1 6 1 1 9 6 7 5 4 7 7 7 7 9 8 7 7 6 5 6 8 9 5 4 4 5 4 6 6 6 6 7 7 9
7 7 15 9 19 8 7 8 5 6 4 4 2 5 6 4 3 6 6 8 8 8 6 7 6 9 8 7 7 6 12 10 6 7 7 6 4 4 4 4 4 4 6 8
6 7 4 10 17 11 7 7 7 5 1 2 4 6 9 2 4 5 4 11 11 8 7 7 7 9 8 8 5 7 10 10 7 6 6 6 5 5 5 4 3 3 5 8
5 6 6 1 6 2 12 8 3 1 4 4 4 3 8 5 7 4 5 8 8 8 8 7 6 11 9 9 6 6 7 7 6 6 5 4 3 3 4 4 4 5 7 9
5 3 2 6 7 11 4 5 0 3 5 5 1 5 5 3 8 8 7 7 11 11 10 7 7 12 12 10 6 7 7 7 5 5 5 4 2 2 4 6 8 7 4 7
2 3 3 13 3 3 6 7 9 4 4 3 3 6 2 3 6 3 5 5 7 10 9 7 8 11 12 9 6 6 7 7 5 5 5 5 3 3 5 8 7 7 2 3
2 1 3 3 2 4 6 5 7 3 2 10 6 4 1 5 4 3 5 5 5 8 9 8 8 9 12 12 8 7 7 7 6 6 6 6 5 5 7 6 7 5 4 5
11 3 7 7 3 5 5 10 11 5 1 3 7 8 6 3 2 2 5 7 8 7 9 12 11 7 13 15 13 10 9 7 7 7 8 8 7 7 8 7 8 8 10 12
5 7 5 7 9 6 8 14 13 10 6 4 5 9 12 8 5 5 7 7 9 11 11 14 13 9 13 14 14 12 11 9 9 9 9 10 9 9 10 10 10 10 11 15
3 10 5 3 8 11 12 15 17 15 12 12 14 12 13 10 2 3 7 8 11 12 13 15 15 13 15 17 17 17 15 12 11 11 11 12 12 12 12 13 13 14 14 16
6 5 3 4 3 5 9 15 15 13 8 6 11 7 12 13 7 6 7 10 14 15 15 16 17 16 19 21 22 19 19 16 14 14 14 14 14 15 15 15 16 17 17 17
8 3 3 3 1 3 6 8 5 10 8 9 7 9 12 13 10 9 6 10 14 13 15 15 15 21 23 27 24 22 21 18 17 17 16 16 16 17 17 17 19 19 20 22
18 7 2 4 4 6 9 2 3 6 6 14 9 4 7 14 6 5 3 7 13 13 14 17 25 26 27 29 27 25 22 21 20 19 18 17 17 18 18 19 18 18 21 23
5 8 6 4 4 5 6 3 4 4 4 7 8 9 9 15 1 3 12 11 12 8 14 17 24 28 29 29 31 27 22 23 20 22 20 19 18 19 18 17 18 20 21 23
5 2 8 3 3 5 11 12 4 1 2 2 5 7 6 6 4 12 12 13 10 7 16 23 27 27 31 34 33 25 24 22 24 23 21 20 19 18 17 19 20 22 23 24
9 7 5 6 6 9 8 2 7 3 4 2 7 8 5 11 11 11 12 11 8 6 15 24 24 25 29 33 31 26 24 25 26 25 24 22 21 19 20 21 22 22 24 24
5 7 6 7 7 7 5 6 5 4 5 7 6 12 10 11 13 13 12 10 8 7 15 22 23 25 28 33 32 27 26 29 29 27 26 25 22 22 22 23 24 23 21 22
4 4 3 4 7 8 7 6 5 4 8 9 7 8 13 13 11 14 12 11 6 8 14 21 22 24 26 31 30 31 31 33 32 28 28 27 25 25 23 22 22 22 20 20
4 7 6 4 7 5 9 8 9 10 11 8 6 6 12 16 12 12 12 11 7 9 17 23 23 24 27 31 30 34 35 36 31 30 30 28 28 28 25 22 21 19 17 16
5 6 5 6 6 6 8 8 7 7 15 8 9 13 13 12 13 12 14 12 9 10 19 21 22 24 27 31 30 36 39 38 35 30 30 31 30 30 28 25 19 14 11 11
Wind_Direction
208 169 224 187 191 186 147 202 254 258 267 304 264 267 269 267 236 242 240 232 228 222 184 178 178 184 194 207 228 246 251 253 244 233 221 223 221 222 238 236 233 232 224 223
54 234 224 192 193 203 203 246 274 282 275 188 281 283 265 247 246 234 229 222 211 175 175 174 171 173 182 193 209 245 271 258 247 233 235 230 230 232 238 250 237 235 215 204
203 219 211 190 182 194 217 213 220 236 325 281 307 285 268 285 254 252 227 224 199 193 177 166 160 170 164 164 224 293 296 247 234 224 231 234 236 234 236 229 241 212 220 189
232 218 188 156 215 192 252 210 228 246 94 250 1 291 254 273 300 262 255 260 216 153 135 146 153 157 154 138 137 24 342 222 226 232 234 238 242 245 241 239 223 199 197 196
232 185 212 226 203 158 227 172 194 207 188 357 282 288 270 339 305 297 259 248 178 144 136 147 153 148 141 138 116 67 71 113 206 227 230 226 226 219 210 223 215 193 212 219
230 212 181 217 227 207 139 135 55 51 105 257 224 195 286 266 230 301 298 197 171 143 132 131 142 139 134 128 100 85 82 97 116 173 172 198 194 181 179 163 159 178 197 195
234 231 238 188 169 113 167 120 309 309 357 230 87 185 253 278 249 235 231 193 160 144 136 146 148 144 132 112 105 85 85 71 85 115 121 135 161 162 162 167 173 182 213 209
177 265 201 200 216 185 181 169 171 203 204 245 66 234 250 227 300 277 238 150 140 147 145 151 150 148 140 113 87 93 78 73 71 74 77 87 103 118 135 167 191 211 224 233
192 240 225 223 215 184 188 201 195 104 57 39 226 285 299 62 327 347 161 149 159 157 154 155 148 149 143 113 96 82 86 81 84 85 82 72 72 82 74 25 359 315 253 242
311 273 193 154 111 168 210 156 139 5 188 235 273 261 239 306 300 247 191 174 152 147 153 152 148 146 131 118 120 102 95 96 94 96 81 67 53 33 38 9 356 318 270 255
359 308 285 142 179 184 145 199 74 160 157 181 213 254 207 232 288 269 212 188 161 157 164 158 152 155 139 127 133 119 110 100 90 83 79 81 78 52 17 16 19 2 318 247
89 313 277 239 330 146 177 181 209 206 233 238 177 248 115 302 309 287 183 170 154 152 151 155 155 158 156 144 150 135 123 110 101 98 102 105 101 80 53 42 29 21 12 206
348 250 288 196 64 19 61 27 17 318 48 212 183 253 100 49 18 95 145 149 153 156 154 155 165 171 156 158 162 160 136 129 123 116 111 112 107 97 76 69 70 66 93 120
313 254 192 273 10 8 325 352 357 349 224 278 227 252 272 177 201 163 158 171 168 182 177 174 179 180 169 164 169 174 150 144 131 125 118 112 106 101 95 94 99 106 98 104
240 247 225 239 251 195 255 294 299 284 284 283 325 309 291 265 253 202 199 169 177 189 186 187 184 178 171 158 165 174 163 154 140 129 126 120 119 106 100 96 95 107 114 110
237 253 236 267 254 236 241 240 247 251 261 260 251 264 270 283 79 199 197 183 203 203 197 191 187 181 173 166 164 174 171 163 153 142 132 126 123 114 103 98 100 101 107 116
296 180 143 246 297 282 249 237 229 246 212 215 263 250 286 287 234 226 219 203 213 209 200 191 186 182 172 168 169 172 176 165 157 149 143 137 132 119 112 108 104 99 100 107
239 192 149 213 329 257 260 304 292 255 207 204 266 264 269 272 263 244 215 201 227 212 203 191 181 177 169 172 174 175 178 168 163 157 152 146 138 130 125 118 108 106 107 105
206 210 158 163 198 287 311 316 276 185 260 222 228 288 334 314 262 273 295 254 250 218 208 192 181 172 165 168 170 169 167 166 166 163 163 158 151 140 133 122 116 111 113 109
118 214 185 140 171 229 232 243 4 331 236 3 30 20 354 325 22 289 341 325 291 219 185 176 172 165 162 166 170 161 161 163 167 172 173 167 158 150 140 130 126 122 119 113
172 169 202 190 209 279 261 277 330 213 186 313 4 335 341 303 286 300 311 316 298 188 166 164 165 169 168 166 166 160 163 170 177 177 175 169 163 154 148 139 136 133 127 123
179 176 199 202 219 246 228 334 182 205 284 208 312 315 291 277 288 298 298 301 300 171 162 169 166 168 165 166 165 161 170 175 175 178 175 170 162 157 152 148 144 144 140 133
210 181 177 169 199 233 218 212 266 129 275 304 315 309 296 287 294 299 298 297 290 188 171 173 171 164 165 169 170 163 170 167 170 175 175 169 164 165 159 156 153 149 149 141
220 151 166 133 231 230 249 274 284 299 263 287 289 292 293 293 305 305 297 287 288 186 177 175 171 170 166 171 171 170 165 170 171 168 171 169 167 162 162 162 161 159 160 154
193 146 164 241 264 326 280 262 266 283 282 284 245 242 284 291 296 297 296 293 268 197 179 180 179 177 171 168 167 169 169 171 163 166 169 171 168 167 163 166 168 171 174 175
193 172 167 228 179 189 235 235 244 262 278 269 287 296 286 279 289 303 287 275 246 197 176 183 184 177 171 168 165 167 175 174 167 160 167 172 173 171 169 166 163 172 173 172